Location: Los Gatos B&B
(42.6926°N, 77.0646°W)
Time: 02:12:31
(UTC-04:00)

Cosmos 2263 Rocket - Visible Passes

Search period start: 31 August 2016 00:00
Search period end: 10 September 2016 00:00
Orbit: 825 x 847 km, 71.0° (Epoch: 30 August)

Date Brightness Start Highest point End Pass type
(mag) Time Alt. Az. Time Alt. Az. Time Alt. Az.
31 Aug 3.3 21:13:43 10° N 21:18:29 28° NE 21:20:21 23° E visible
31 Aug 3.0 22:57:18 10° NW 23:02:03 44° W 23:02:03 44° W visible
01 Sep 3.4 20:57:06 10° N 21:01:44 26° NE 21:04:09 20° E visible
01 Sep 2.7 22:40:34 10° NW 22:45:51 49° WSW 22:45:51 49° WSW visible
02 Sep 3.4 20:40:28 10° N 20:44:59 25° NE 20:48:00 16° E visible
02 Sep 2.5 22:23:49 10° NNW 22:29:14 54° WSW 22:29:42 52° SW visible
03 Sep 3.5 20:23:51 10° N 20:28:14 23° NE 20:31:54 13° E visible
03 Sep 2.5 22:07:05 10° NNW 22:12:34 59° WSW 22:13:37 50° SSW visible
04 Sep 3.6 20:07:15 10° N 20:11:29 21° NE 20:15:41 10° E visible
04 Sep 2.4 21:50:22 10° NNW 21:55:53 64° WSW 21:57:34 43° S visible
05 Sep 2.3 21:33:39 10° NNW 21:39:12 70° WSW 21:41:36 34° S visible
06 Sep 2.2 21:16:56 10° NNW 21:22:30 76° WSW 21:25:42 26° SSE visible
07 Sep 2.2 21:00:13 10° NNW 21:05:49 82° WSW 21:09:53 19° SSE visible
07 Sep 4.8 22:47:52 10° W 22:48:47 10° W 22:49:42 10° WSW visible
08 Sep 2.1 20:43:31 10° NNW 20:49:07 88° WSW 20:54:10 13° SSE visible
08 Sep 4.8 22:30:19 10° WNW 22:32:09 12° W 22:33:59 10° WSW visible
09 Sep 2.1 20:26:49 10° NNW 20:32:25 85° ENE 20:38:01 10° SSE visible
09 Sep 4.8 22:13:07 10° WNW 22:15:31 13° W 22:17:55 10° WSW visible
